Location: Lake Crest
(37.6062°N, 88.9176°W)
Time: 04:13:36
(UTC+00:00)

USA 234 - Pass Details

Date: 15 December 2019
Orbit: 1099 x 1108 km, 123.0° (Epoch: 20 January)

Event Time Altitude Azimuth Distance (km) Brightness Sun altitude
Rises 10:02:11 0° 46° (NE) 3,922 6.7 -34.9°
Reaches altitude 10° 10:04:41 10° 49° (NE) 2,963 6.0 -34.4°
Maximum altitude 10:11:13 70° 133° (SE) 1,169 3.4 -33.2°
Enters shadow 10:11:40 67° 159° (SSE) 1,183 3.3 -33.1°
